Tracking 31027 objects as of 19-Jul-2025
HD Live streaming from Space Station
objects crossing your sky now

COSMOS 340

Track COSMOS 340 now!
10-day predictions
COSMOS 340 is classified as:


NORAD ID: 4387
Int'l Code: 1970-036E
Perigee: 1,414.3 km
Apogee: 1,476.2 km
Inclination: 74.0 °
Period: 114.6 minutes
Semi major axis: 7816 km
RCS: 0.7658 m2 (medium)
Launch date: April 25, 1970
Source: Commonwealth of Independent States (former USSR) (CIS)
Launch site: PLESETSK MISSILE AND SPACE COMPLEX (PKMTR)
Your satellite tracking list
IRIDIUM 106
Track 1 satellite(s)




NASA's NSSDC Master Catalog

Two Line Element Set (TLE):
1 04387U 70036E   25199.45554708 -.00000009  00000-0  42168-4 0  9997
2 04387  74.0304   1.2778 0039567  37.0779 352.8377 12.56329190532474
Source of the keplerian elements: AFSPC